Newberry, MI

9:04 PM EST on November 21, 2017 (GMT -0500)
Luce County

Weather History for KERY - December, 2012

Change the Weather History Date:

Thursday, December 13, 2012

  Actual Average Record
Temperature  
Mean Temperature 34 °F -  
Max Temperature 39 °F 29 °F 53 °F (2015)
Min Temperature 30 °F 14 °F -9 °F (1922)
Degree Days  
Heating Degree Days 30    
Moisture  
Dew Point 30 °F    
Average Humidity 76    
Maximum Humidity 93    
Minimum Humidity 65    
Precipitation  
Precipitation 0.00 in - - ()
Sea Level Pressure  
Sea Level Pressure 30.03 in    
Wind  
Wind Speed 15 mph (SW)    
Max Wind Speed 26 mph    
Max Gust Speed 40 mph    
Visibility 10 miles    
Events Rain , Snow    
Averages and records for this station are not official NWS values.
T = Trace of Precipitation, MM = Missing Value Source: NWS Daily Summary

Daily Weather History Graph

Daily Weather History Graph

Search for Another Location

Airport or City:

Trip Planner

Search our weather history database for the weather conditions in past years. The results will help you decide how hot, cold, wet, or windy it might be!

Date:

Astronomy

Dec. 13, 2012 Rise Set
Actual Time 8:17 AM EST 4:55 PM EST
Civil Twilight 7:42 AM EST 5:30 PM EST
Nautical Twilight 7:04 AM EST 6:08 PM EST
Astronomical Twilight 6:27 AM EST 6:45 PM EST
Moon 8:23 AM EST (12/13) 5:38 PM EST (12/13)
Length of Visible Light 9h 48m
Length of Day
8h 38m
New Moon, 0% of the Moon is Illuminated
Dec 13
New Moon
Dec 20
First Quarter
Dec 28
Full
Jan 4
Last Quarter
Jan 11
New

Hourly Weather History & Observations

Time (EST) Temp. Windchill Dew Point Humidity Pressure Visibility Wind Dir Wind Speed Gust Speed Precip Events Conditions
12:14 AM 39.2 °F 30.2 °F 35.6 °F 87% 30.08 in 10.0 mi South 17.3 mph 24.2 mph N/A   Overcast
12:35 AM 39.2 °F 29.6 °F 35.6 °F 87% 30.08 in 10.0 mi SSW 19.6 mph 24.2 mph N/A   Overcast
12:55 AM 39.2 °F 30.2 °F 35.6 °F 87% 30.08 in 10.0 mi SSW 17.3 mph 24.2 mph N/A   Overcast
1:14 AM 39.2 °F 30.2 °F 35.6 °F 87% 30.09 in 10.0 mi SSW 17.3 mph 23.0 mph N/A   Overcast
1:35 AM 39.2 °F 30.5 °F 35.6 °F 87% 30.08 in 10.0 mi SSW 16.1 mph - N/A   Overcast
1:54 AM 39.2 °F 30.8 °F 35.6 °F 87% 30.08 in 10.0 mi SSW 15.0 mph 23.0 mph N/A   Overcast
2:14 AM 39.2 °F 30.5 °F 35.6 °F 87% 30.08 in 10.0 mi SSW 16.1 mph - N/A   Overcast
2:35 AM 39.2 °F 28.0 °F 33.8 °F 81% 30.09 in 5.0 mi SW 26.5 mph 40.3 mph N/A Rain Light Rain
2:54 AM 37.4 °F 26.6 °F 32.0 °F 81% 30.09 in 7.0 mi SW 21.9 mph 29.9 mph N/A   Overcast
3:15 AM 37.4 °F 27.5 °F 32.0 °F 81% 30.10 in 7.0 mi SW 18.4 mph 32.2 mph N/A   Overcast
3:35 AM 37.4 °F 29.8 °F 32.0 °F 81% 30.09 in 10.0 mi SW 11.5 mph 18.4 mph N/A Snow Light Snow
3:54 AM 37.4 °F 30.8 °F 30.2 °F 75% 30.08 in 10.0 mi SW 9.2 mph - N/A   Overcast
4:15 AM 37.4 °F 30.3 °F 32.0 °F 81% 30.07 in 10.0 mi SSW 10.4 mph - N/A   Overcast
4:35 AM 39.2 °F 30.8 °F 30.2 °F 70% 30.06 in 10.0 mi SSW 15.0 mph 21.9 mph N/A   Overcast
4:54 AM 39.2 °F 30.8 °F 30.2 °F 70% 30.05 in 10.0 mi SSW 15.0 mph 20.7 mph N/A   Overcast
5:15 AM 39.2 °F 30.5 °F 30.2 °F 70% 30.04 in 10.0 mi SSW 16.1 mph 20.7 mph N/A   Overcast
5:35 AM 39.2 °F 30.5 °F 30.2 °F 70% 30.04 in 10.0 mi SSW 16.1 mph 24.2 mph N/A   Overcast
5:54 AM 37.4 °F 28.5 °F 30.2 °F 75% 30.04 in 10.0 mi SSW 15.0 mph - N/A   Overcast
6:15 AM 37.4 °F 27.5 °F 30.2 °F 75% 30.04 in 10.0 mi SSW 18.4 mph 21.9 mph N/A   Mostly Cloudy
6:34 AM 37.4 °F 28.5 °F 30.2 °F 75% 30.04 in 10.0 mi SSW 15.0 mph 23.0 mph N/A   Mostly Cloudy
6:54 AM 37.4 °F 28.5 °F 30.2 °F 75% 30.04 in 10.0 mi SSW 15.0 mph - N/A   Overcast
7:15 AM 37.4 °F 27.5 °F 30.2 °F 75% 30.04 in 10.0 mi SSW 18.4 mph 23.0 mph N/A   Mostly Cloudy
7:34 AM 37.4 °F 28.2 °F 30.2 °F 75% 30.04 in 10.0 mi SSW 16.1 mph - N/A   Mostly Cloudy
7:54 AM 37.4 °F 28.5 °F 28.4 °F 70% 30.04 in 10.0 mi SSW 15.0 mph 26.5 mph N/A   Mostly Cloudy
8:15 AM 37.4 °F 28.2 °F 28.4 °F 70% 30.03 in 10.0 mi SSW 16.1 mph - N/A   Mostly Cloudy
8:34 AM 37.4 °F 28.5 °F 28.4 °F 70% 30.03 in 10.0 mi SSW 15.0 mph 21.9 mph N/A   Mostly Cloudy
8:55 AM 37.4 °F 28.2 °F 28.4 °F 70% 30.04 in 10.0 mi SSW 16.1 mph 21.9 mph N/A   Scattered Clouds
9:14 AM 37.4 °F 28.5 °F 28.4 °F 70% 30.04 in 10.0 mi SSW 15.0 mph - N/A   Scattered Clouds
9:35 AM 37.4 °F 27.5 °F 28.4 °F 70% 30.03 in 10.0 mi SSW 18.4 mph - N/A   Mostly Cloudy
9:55 AM 37.4 °F 26.6 °F 28.4 °F 70% 30.03 in 10.0 mi SSW 21.9 mph - N/A   Mostly Cloudy
10:14 AM 37.4 °F 27.5 °F 28.4 °F 70% 30.03 in 10.0 mi SW 18.4 mph 23.0 mph N/A   Mostly Cloudy
10:35 AM 37.4 °F 27.5 °F 28.4 °F 70% 30.04 in 10.0 mi SSW 18.4 mph 23.0 mph N/A   Mostly Cloudy
10:55 AM 37.4 °F 28.2 °F 28.4 °F 70% 30.03 in 10.0 mi SSW 16.1 mph 21.9 mph N/A   Mostly Cloudy
11:14 AM 37.4 °F 29.3 °F 28.4 °F 70% 30.03 in 10.0 mi SSW 12.7 mph 23.0 mph N/A   Mostly Cloudy
11:35 AM 37.4 °F 28.5 °F 28.4 °F 70% 30.03 in 10.0 mi SW 15.0 mph 20.7 mph N/A   Clear
11:55 AM 39.2 °F 31.6 °F 28.4 °F 65% 30.02 in 10.0 mi SW 12.7 mph 21.9 mph N/A   Clear
12:14 PM 39.2 °F 30.2 °F 28.4 °F 65% 30.01 in 10.0 mi SW 17.3 mph 20.7 mph N/A   Scattered Clouds
12:35 PM 39.2 °F 30.5 °F 28.4 °F 65% 30.00 in 10.0 mi SSW 16.1 mph 24.2 mph N/A   Mostly Cloudy
12:54 PM 37.4 °F 29.3 °F 28.4 °F 70% 30.00 in 10.0 mi SW 12.7 mph 21.9 mph N/A   Scattered Clouds
1:15 PM 37.4 °F 27.2 °F 28.4 °F 70% 29.99 in 10.0 mi SSW 19.6 mph 25.3 mph N/A   Scattered Clouds
1:35 PM 37.4 °F 27.8 °F 28.4 °F 70% 29.99 in 10.0 mi SSW 17.3 mph - N/A   Mostly Cloudy
1:54 PM 37.4 °F 29.8 °F 28.4 °F 70% 29.98 in 10.0 mi SW 11.5 mph - N/A   Mostly Cloudy
2:15 PM 39.2 °F 30.5 °F 28.4 °F 65% 29.98 in 10.0 mi SW 16.1 mph - N/A   Scattered Clouds
2:35 PM 39.2 °F 30.8 °F 28.4 °F 65% 29.97 in 10.0 mi SW 15.0 mph 20.7 mph N/A   Scattered Clouds
2:54 PM 37.4 °F 28.5 °F 28.4 °F 70% 29.97 in 10.0 mi SSW 15.0 mph 18.4 mph N/A   Scattered Clouds
3:15 PM 37.4 °F 31.4 °F 28.4 °F 70% 29.97 in 10.0 mi SW 8.1 mph - N/A   Clear
3:34 PM 37.4 °F 30.3 °F 28.4 °F 70% 29.98 in 10.0 mi SW 10.4 mph - N/A   Clear
3:54 PM 37.4 °F 31.4 °F 28.4 °F 70% 29.98 in 10.0 mi SW 8.1 mph 16.1 mph N/A   Scattered Clouds
4:15 PM 37.4 °F 32.8 °F 28.4 °F 70% 29.98 in 10.0 mi SW 5.8 mph 10.4 mph N/A   Scattered Clouds
4:34 PM 35.6 °F 29.9 °F 26.6 °F 70% 29.98 in 10.0 mi SW 6.9 mph - N/A   Scattered Clouds
4:55 PM 35.6 °F 29.2 °F 26.6 °F 70% 29.98 in 10.0 mi SW 8.1 mph - N/A   Clear
5:34 PM 33.8 °F 30.8 °F 26.6 °F 75% 29.99 in 10.0 mi SW 3.5 mph - N/A   Clear
8:14 PM 30.2 °F 23.4 °F 26.6 °F 86% 30.01 in 10.0 mi WSW 6.9 mph - N/A   Overcast
8:35 PM 30.2 °F 23.4 °F 26.6 °F 86% 30.02 in 10.0 mi WSW 6.9 mph - N/A   Overcast
8:54 PM 30.2 °F 23.4 °F 28.4 °F 93% 30.02 in 10.0 mi WSW 6.9 mph - N/A   Overcast
9:14 PM 32.0 °F 25.6 °F 28.4 °F 87% 30.02 in 10.0 mi WSW 6.9 mph - N/A   Overcast
9:35 PM 32.0 °F 27.5 °F 28.4 °F 87% 30.02 in 10.0 mi West 4.6 mph - N/A   Overcast
9:54 PM 32.0 °F 24.2 °F 28.4 °F 87% 30.03 in 10.0 mi West 9.2 mph - N/A   Overcast
10:15 PM 33.8 °F 27.7 °F 28.4 °F 81% 30.03 in 10.0 mi West 6.9 mph - N/A   Overcast
10:35 PM 33.8 °F 29.6 °F 28.4 °F 81% 30.04 in 10.0 mi NW 4.6 mph - N/A   Overcast
10:54 PM 33.8 °F 28.6 °F 30.2 °F 87% 30.04 in 10.0 mi NW 5.8 mph - N/A   Overcast
11:15 PM 33.8 °F 27.7 °F 30.2 °F 87% 30.05 in 10.0 mi NW 6.9 mph - N/A   Overcast
11:35 PM 33.8 °F 26.4 °F 30.2 °F 87% 30.06 in 10.0 mi WNW 9.2 mph - N/A   Overcast
11:54 PM 33.8 °F 28.6 °F 30.2 °F 87% 30.07 in 10.0 mi NW 5.8 mph - N/A   Overcast